Location: Piotrkow Trybunalski
(51.4000°N, 19.6830°E)
Time: 15:21:22
(UTC+01:00)

Vanguard 2 - Pass Details

Date: 07 February 2023
Orbit: 553 x 2927 km, 32.9° (Epoch: 24 March)

Event Time Altitude Azimuth Distance (km) Brightness Sun altitude
Rises 00:51:28 0° 264° (W) 6,102 - -52.3°
Reaches altitude 10° 00:55:50 10° 255° (WSW) 5,344 - -52.1°
Maximum altitude 01:09:20 32° 201° (SSW) 4,185 - -51.1°
Drops below altitude 10° 01:23:22 10° 148° (SSE) 5,536 - -50.0°
Exits shadow 01:25:35 - 143° (SE) 5,905 11.9 -49.8°
Sets 01:28:03 0° 139° (SE) 6,341 12.1 -49.6°
